Time,TemperatureF,DewpointF,PressureIn,WindDirection,WindDirectionDegrees,WindSpeedMPH,WindSpeedGustMPH,Humidity,HourlyPrecipIn,Conditions,Clouds,dailyrainin,SoftwareType,DateUTC
2013-01-23 00:03:00,6.0,6.0,30.22,South,172,0.0,5.0,98,0.00,,,0.00,,2013-01-23 05:03:00,
2013-01-23 00:12:00,6.0,6.0,30.22,South,172,0.0,5.0,98,0.00,,,0.00,,2013-01-23 05:12:00,
2013-01-23 00:22:00,6.0,6.0,30.22,South,189,0.0,6.0,98,0.00,,,0.00,,2013-01-23 05:22:00,
2013-01-23 00:33:00,6.0,6.0,30.22,South,175,0.0,6.0,98,0.00,,,0.00,,2013-01-23 05:33:00,
2013-01-23 00:43:00,6.0,6.0,30.22,South,175,0.0,6.0,98,0.00,,,0.00,,2013-01-23 05:43:00,
2013-01-23 00:52:00,6.0,6.0,30.22,SW,233,3.0,5.0,98,0.00,,,0.00,,2013-01-23 05:52:00,
2013-01-23 01:03:00,6.0,5.0,30.22,SSW,213,0.0,5.0,97,0.00,,,0.00,,2013-01-23 06:03:00,
2013-01-23 01:12:00,6.0,5.0,30.22,SSW,213,0.0,5.0,97,0.00,,,0.00,,2013-01-23 06:12:00,
2013-01-23 01:22:00,6.0,5.0,30.22,SW,234,4.0,4.0,97,0.00,,,0.00,,2013-01-23 06:22:00,
2013-01-23 01:32:00,6.0,6.0,30.22,SW,215,3.0,5.0,99,0.00,,,0.00,,2013-01-23 06:32:00,
2013-01-23 01:43:00,6.0,6.0,30.22,SW,215,3.0,5.0,99,0.00,,,0.00,,2013-01-23 06:43:00,
2013-01-23 01:52:00,6.0,6.0,30.22,SW,216,2.0,5.0,99,0.00,,,0.00,,2013-01-23 06:52:00,
2013-01-23 02:02:00,6.0,6.0,30.22,SSW,196,3.0,4.0,99,0.00,,,0.00,,2013-01-23 07:02:00,
2013-01-23 02:12:00,6.0,6.0,30.22,SSW,196,3.0,4.0,99,0.00,,,0.00,,2013-01-23 07:12:00,
2013-01-23 02:22:00,5.0,5.0,30.22,WSW,241,0.0,7.0,99,0.00,,,0.00,,2013-01-23 07:22:00,
2013-01-23 02:33:00,6.0,6.0,30.22,SW,222,0.0,5.0,99,0.00,,,0.00,,2013-01-23 07:33:00,
2013-01-23 02:42:00,6.0,6.0,30.22,SW,222,0.0,5.0,99,0.00,,,0.00,,2013-01-23 07:42:00,
2013-01-23 02:52:00,5.0,5.0,30.23,SSW,199,3.0,6.0,99,0.00,,,0.00,,2013-01-23 07:52:00,
2013-01-23 03:02:00,6.0,6.0,30.23,WNW,295,0.0,5.0,99,0.00,,,0.00,,2013-01-23 08:02:00,
2013-01-23 03:13:00,6.0,6.0,30.23,WNW,295,0.0,5.0,99,0.00,,,0.00,,2013-01-23 08:13:00,
2013-01-23 03:23:00,6.0,6.0,30.23,West,268,2.0,5.0,99,0.00,,,0.00,,2013-01-23 08:23:00,
2013-01-23 03:33:00,6.0,6.0,30.23,South,187,2.0,5.0,99,0.00,,,0.00,,2013-01-23 08:33:00,
2013-01-23 03:43:00,6.0,6.0,30.23,South,187,2.0,5.0,99,0.00,,,0.00,,2013-01-23 08:43:00,
2013-01-23 03:52:00,5.0,5.0,30.22,South,175,3.0,6.0,99,0.00,,,0.00,,2013-01-23 08:52:00,
2013-01-23 04:03:00,5.0,5.0,30.22,South,189,0.0,0.0,99,0.00,,,0.00,,2013-01-23 09:03:00,
2013-01-23 04:12:00,5.0,5.0,30.22,South,189,0.0,0.0,99,0.00,,,0.00,,2013-01-23 09:12:00,
2013-01-23 04:22:00,5.0,5.0,30.22,SSW,210,2.0,6.0,99,0.00,,,0.00,,2013-01-23 09:22:00,
2013-01-23 04:32:00,5.0,5.0,30.22,SE,142,0.0,2.0,99,0.00,,,0.00,,2013-01-23 09:32:00,
2013-01-23 04:43:00,5.0,5.0,30.22,SE,142,0.0,2.0,99,0.00,,,0.00,,2013-01-23 09:43:00,
2013-01-23 04:52:00,5.0,5.0,30.22,South,189,0.0,6.0,99,0.00,,,0.00,,2013-01-23 09:52:00,
2013-01-23 05:03:00,5.0,5.0,30.21,SSW,212,1.0,4.0,99,0.00,,,0.00,,2013-01-23 10:03:00,
2013-01-23 05:12:00,5.0,5.0,30.21,SSW,212,1.0,4.0,99,0.00,,,0.00,,2013-01-23 10:12:00,
2013-01-23 05:23:00,5.0,5.0,30.21,SSE,164,0.0,0.0,99,0.00,,,0.00,,2013-01-23 10:23:00,
2013-01-23 05:33:00,5.0,5.0,30.21,SW,220,0.0,5.0,99,0.00,,,0.00,,2013-01-23 10:33:00,
2013-01-23 05:43:00,5.0,5.0,30.21,SW,220,0.0,5.0,99,0.00,,,0.00,,2013-01-23 10:43:00,
2013-01-23 05:52:00,5.0,5.0,30.22,South,171,0.0,5.0,99,0.00,,,0.00,,2013-01-23 10:52:00,
2013-01-23 06:03:00,5.0,5.0,30.22,South,170,0.0,4.0,99,0.00,,,0.00,,2013-01-23 11:03:00,
2013-01-23 06:12:00,5.0,5.0,30.22,South,170,0.0,4.0,99,0.00,,,0.00,,2013-01-23 11:12:00,
2013-01-23 06:23:00,6.0,6.0,30.22,SSW,212,3.0,6.0,99,0.00,,,0.00,,2013-01-23 11:23:00,
2013-01-23 06:33:00,6.0,6.0,30.22,South,188,0.0,5.0,99,0.00,,,0.00,,2013-01-23 11:33:00,
2013-01-23 06:43:00,6.0,6.0,30.22,South,188,0.0,5.0,99,0.00,,,0.00,,2013-01-23 11:43:00,
2013-01-23 06:53:00,5.0,5.0,30.22,South,188,0.0,3.0,99,0.00,,,0.00,,2013-01-23 11:53:00,
2013-01-23 07:03:00,5.0,5.0,30.22,SW,226,3.0,7.0,99,0.00,,,0.00,,2013-01-23 12:03:00,
2013-01-23 07:13:00,5.0,5.0,30.22,SW,226,3.0,7.0,99,0.00,,,0.00,,2013-01-23 12:13:00,
2013-01-23 07:22:00,5.0,5.0,30.22,SSW,194,0.0,0.0,99,0.00,,,0.00,,2013-01-23 12:22:00,
2013-01-23 07:33:00,5.0,5.0,30.23,SW,219,0.0,0.0,99,0.00,,,0.00,,2013-01-23 12:33:00,
2013-01-23 07:43:00,5.0,5.0,30.23,SW,219,0.0,0.0,99,0.00,,,0.00,,2013-01-23 12:43:00,
2013-01-23 07:53:00,5.0,5.0,30.23,SSE,163,0.0,4.0,99,0.00,,,0.00,,2013-01-23 12:53:00,
2013-01-23 08:04:00,5.0,5.0,30.23,SSW,203,0.0,4.0,99,0.00,,,0.00,,2013-01-23 13:04:00,
2013-01-23 08:13:00,5.0,5.0,30.23,SSW,203,0.0,4.0,99,0.00,,,0.00,,2013-01-23 13:13:00,
2013-01-23 08:23:00,6.0,6.0,30.23,SSW,209,0.0,0.0,99,0.00,,,0.00,,2013-01-23 13:23:00,
2013-01-23 08:33:00,6.0,6.0,30.23,SSW,199,3.0,5.0,99,0.00,,,0.00,,2013-01-23 13:33:00,
2013-01-23 08:42:00,6.0,6.0,30.23,SSW,199,3.0,5.0,99,0.00,,,0.00,,2013-01-23 13:42:00,
2013-01-23 08:52:00,6.0,6.0,30.23,SW,225,0.0,0.0,99,0.00,,,0.00,,2013-01-23 13:52:00,
2013-01-23 09:03:00,6.0,6.0,30.24,SSW,198,0.0,6.0,99,0.00,,,0.00,,2013-01-23 14:03:00,
2013-01-23 09:12:00,6.0,6.0,30.24,SSW,198,0.0,6.0,99,0.00,,,0.00,,2013-01-23 14:12:00,
2013-01-23 09:23:00,6.0,6.0,30.24,SSW,201,0.0,5.0,98,0.00,,,0.00,,2013-01-23 14:23:00,
2013-01-23 09:33:00,7.0,6.0,30.24,SW,217,0.0,5.0,97,0.00,,,0.00,,2013-01-23 14:33:00,
2013-01-23 09:43:00,7.0,6.0,30.24,SW,217,0.0,5.0,97,0.00,,,0.00,,2013-01-23 14:43:00,
2013-01-23 09:53:00,8.0,7.0,30.24,South,172,0.0,0.0,97,0.00,,,0.00,,2013-01-23 14:53:00,
2013-01-23 10:03:00,8.0,7.0,30.24,SSE,168,5.0,6.0,95,0.00,,,0.00,,2013-01-23 15:03:00,
2013-01-23 10:12:00,8.0,7.0,30.24,SSE,168,5.0,6.0,95,0.00,,,0.00,,2013-01-23 15:12:00,
2013-01-23 10:23:00,9.0,8.0,30.24,SSW,192,0.0,0.0,94,0.00,,,0.00,,2013-01-23 15:23:00,
2013-01-23 10:33:00,10.0,9.0,30.25,SSW,203,0.0,0.0,94,0.00,,,0.00,,2013-01-23 15:33:00,
2013-01-23 10:43:00,10.0,9.0,30.25,SSW,203,0.0,0.0,94,0.00,,,0.00,,2013-01-23 15:43:00,
2013-01-23 10:53:00,11.0,9.0,30.24,SSW,199,0.0,5.0,93,0.00,,,0.00,,2013-01-23 15:53:00,
2013-01-23 11:03:00,11.0,9.0,30.24,South,170,0.0,0.0,93,0.00,,,0.00,,2013-01-23 16:03:00,
2013-01-23 11:12:00,11.0,9.0,30.24,South,170,0.0,0.0,93,0.00,,,0.00,,2013-01-23 16:12:00,
2013-01-23 11:23:00,11.0,9.0,30.24,SSW,209,4.0,6.0,91,0.00,,,0.00,,2013-01-23 16:23:00,
2013-01-23 11:33:00,12.0,10.0,30.24,South,184,3.0,9.0,90,0.00,,,0.00,,2013-01-23 16:33:00,
2013-01-23 11:42:00,12.0,10.0,30.24,South,184,3.0,9.0,90,0.00,,,0.00,,2013-01-23 16:42:00,
2013-01-23 11:52:00,11.0,8.0,30.23,SSW,209,3.0,7.0,88,0.00,,,0.00,,2013-01-23 16:52:00,
2013-01-23 12:03:00,12.0,9.0,30.23,South,189,0.0,6.0,87,0.00,,,0.00,,2013-01-23 17:03:00,
2013-01-23 12:12:00,12.0,9.0,30.23,South,189,0.0,6.0,87,0.00,,,0.00,,2013-01-23 17:12:00,
2013-01-23 12:23:00,13.0,9.0,30.22,SSW,213,4.0,5.0,85,0.00,,,0.00,,2013-01-23 17:23:00,
2013-01-23 12:33:00,14.0,10.0,30.21,WSW,243,2.0,5.0,84,0.00,,,0.00,,2013-01-23 17:33:00,
2013-01-23 12:42:00,14.0,10.0,30.21,WSW,243,2.0,5.0,84,0.00,,,0.00,,2013-01-23 17:42:00,
2013-01-23 12:53:00,15.0,11.0,30.21,SSW,203,0.0,8.0,82,0.00,,,0.00,,2013-01-23 17:53:00,
2013-01-23 13:03:00,15.0,11.0,30.20,SSW,213,4.0,8.0,82,0.00,,,0.00,,2013-01-23 18:03:00,
2013-01-23 13:12:00,15.0,11.0,30.20,SSW,213,4.0,8.0,82,0.00,,,0.00,,2013-01-23 18:12:00,
2013-01-23 13:23:00,16.0,12.0,30.19,South,188,0.0,3.0,83,0.00,,,0.00,,2013-01-23 18:23:00,
2013-01-23 13:33:00,16.0,12.0,30.19,South,188,0.0,3.0,83,0.00,,,0.00,,2013-01-23 18:33:00,
2013-01-23 13:43:00,16.0,11.0,30.18,SSE,168,0.0,5.0,81,0.00,,,0.00,,2013-01-23 18:43:00,
2013-01-23 13:53:00,16.0,12.0,30.18,WSW,253,0.0,0.0,83,0.00,,,0.00,,2013-01-23 18:53:00,
2013-01-23 14:03:00,16.0,12.0,30.17,SW,227,0.0,0.0,83,0.00,,,0.00,,2013-01-23 19:03:00,
2013-01-23 14:13:00,16.0,12.0,30.17,SW,227,0.0,0.0,83,0.00,,,0.00,,2013-01-23 19:13:00,
2013-01-23 14:23:00,16.0,12.0,30.16,South,170,4.0,4.0,84,0.00,,,0.00,,2013-01-23 19:23:00,
2013-01-23 14:33:00,16.0,11.0,30.15,SSW,206,0.0,8.0,81,0.00,,,0.00,,2013-01-23 19:33:00,
2013-01-23 14:43:00,16.0,11.0,30.15,SSW,206,0.0,8.0,81,0.00,,,0.00,,2013-01-23 19:43:00,
2013-01-23 14:53:00,15.0,11.0,30.15,SSW,210,4.0,6.0,83,0.00,,,0.00,,2013-01-23 19:53:00,
2013-01-23 15:03:00,15.0,12.0,30.15,South,181,0.0,0.0,87,0.00,,,0.00,,2013-01-23 20:03:00,
2013-01-23 15:13:00,15.0,12.0,30.15,South,181,0.0,0.0,87,0.00,,,0.00,,2013-01-23 20:13:00,
2013-01-23 15:23:00,16.0,13.0,30.15,SSW,201,2.0,5.0,86,0.00,,,0.00,,2013-01-23 20:23:00,
2013-01-23 15:33:00,15.0,11.0,30.14,SSW,206,0.0,6.0,84,0.00,,,0.00,,2013-01-23 20:33:00,
2013-01-23 15:43:00,15.0,11.0,30.14,SSW,206,0.0,6.0,84,0.00,,,0.00,,2013-01-23 20:43:00,
2013-01-23 15:53:00,15.0,11.0,30.14,SW,215,0.0,5.0,85,0.00,,,0.00,,2013-01-23 20:53:00,
2013-01-23 16:03:00,15.0,12.0,30.14,WSW,237,0.0,0.0,86,0.00,,,0.00,,2013-01-23 21:03:00,
2013-01-23 16:12:00,15.0,12.0,30.14,WSW,237,0.0,0.0,86,0.00,,,0.00,,2013-01-23 21:12:00,
2013-01-23 16:23:00,15.0,12.0,30.14,WSW,237,0.0,0.0,87,0.00,,,0.00,,2013-01-23 21:23:00,
2013-01-23 16:33:00,14.0,11.0,30.14,SSW,198,0.0,3.0,89,0.00,,,0.00,,2013-01-23 21:33:00,
2013-01-23 16:43:00,14.0,11.0,30.14,SSW,198,0.0,3.0,89,0.00,,,0.00,,2013-01-23 21:43:00,
2013-01-23 16:52:00,14.0,12.0,30.13,SSW,206,0.0,3.0,90,0.00,,,0.00,,2013-01-23 21:52:00,
2013-01-23 17:03:00,14.0,12.0,30.13,SW,233,0.0,3.0,91,0.00,,,0.00,,2013-01-23 22:03:00,
2013-01-23 17:12:00,14.0,12.0,30.13,SW,233,0.0,3.0,91,0.00,,,0.00,,2013-01-23 22:12:00,
2013-01-23 17:23:00,14.0,12.0,30.12,South,184,0.0,0.0,91,0.00,,,0.00,,2013-01-23 22:23:00,
2013-01-23 17:33:00,13.0,11.0,30.11,SSE,154,0.0,0.0,91,0.00,,,0.00,,2013-01-23 22:33:00,
2013-01-23 17:42:00,13.0,11.0,30.11,SSE,154,0.0,0.0,91,0.00,,,0.00,,2013-01-23 22:42:00,
2013-01-23 17:53:00,13.0,11.0,30.10,SSE,154,0.0,0.0,92,0.00,,,0.00,,2013-01-23 22:53:00,
2013-01-23 18:03:00,12.0,10.0,30.09,SSE,154,0.0,0.0,92,0.00,,,0.00,,2013-01-23 23:03:00,
2013-01-23 18:13:00,12.0,10.0,30.09,SSE,154,0.0,0.0,92,0.00,,,0.00,,2013-01-23 23:13:00,
2013-01-23 18:23:00,12.0,10.0,30.09,SSE,154,0.0,0.0,92,0.00,,,0.00,,2013-01-23 23:23:00,
2013-01-23 18:33:00,11.0,9.0,30.10,SSE,154,0.0,0.0,92,0.00,,,0.00,,2013-01-23 23:33:00,
2013-01-23 18:43:00,11.0,9.0,30.10,SSE,154,0.0,0.0,92,0.00,,,0.00,,2013-01-23 23:43:00,
2013-01-23 18:53:00,11.0,9.0,30.10,SSE,154,0.0,0.0,93,0.00,,,0.00,,2013-01-23 23:53:00,
2013-01-23 19:03:00,11.0,9.0,30.10,SSE,154,0.0,0.0,93,0.00,,,0.00,,2013-01-24 00:03:00,
2013-01-23 19:12:00,11.0,9.0,30.10,SSE,154,0.0,0.0,93,0.00,,,0.00,,2013-01-24 00:12:00,
2013-01-23 19:22:00,11.0,9.0,30.09,SSE,154,0.0,0.0,93,0.00,,,0.00,,2013-01-24 00:22:00,
2013-01-23 19:32:00,11.0,10.0,30.10,SSE,154,0.0,0.0,94,0.00,,,0.00,,2013-01-24 00:32:00,
2013-01-23 19:43:00,11.0,10.0,30.10,SSE,154,0.0,0.0,94,0.00,,,0.00,,2013-01-24 00:43:00,
2013-01-23 19:53:00,12.0,11.0,30.10,SSE,154,0.0,0.0,94,0.00,,,0.00,,2013-01-24 00:53:00,
2013-01-23 20:03:00,12.0,11.0,30.09,SSE,154,0.0,0.0,95,0.00,,,0.00,,2013-01-24 01:03:00,
2013-01-23 20:12:00,12.0,11.0,30.09,SSE,154,0.0,0.0,95,0.00,,,0.00,,2013-01-24 01:12:00,
2013-01-23 20:23:00,12.0,11.0,30.09,SSE,154,0.0,0.0,95,0.00,,,0.00,,2013-01-24 01:23:00,
2013-01-23 20:33:00,12.0,11.0,30.08,SSE,154,0.0,0.0,95,0.00,,,0.00,,2013-01-24 01:33:00,
2013-01-23 20:42:00,12.0,11.0,30.08,SSE,154,0.0,0.0,95,0.00,,,0.00,,2013-01-24 01:42:00,
2013-01-23 20:52:00,12.0,11.0,30.08,South,174,0.0,0.0,96,0.00,,,0.00,,2013-01-24 01:52:00,
2013-01-23 21:03:00,12.0,11.0,30.08,South,174,0.0,0.0,96,0.00,,,0.00,,2013-01-24 02:03:00,
2013-01-23 21:12:00,12.0,11.0,30.08,South,174,0.0,0.0,96,0.00,,,0.00,,2013-01-24 02:12:00,
2013-01-23 21:22:00,12.0,11.0,30.08,South,174,0.0,0.0,97,0.00,,,0.00,,2013-01-24 02:22:00,
2013-01-23 21:33:00,12.0,11.0,30.08,South,174,0.0,0.0,97,0.00,,,0.00,,2013-01-24 02:33:00,
2013-01-23 21:42:00,12.0,11.0,30.08,South,174,0.0,0.0,97,0.00,,,0.00,,2013-01-24 02:42:00,
2013-01-23 21:52:00,12.0,11.0,30.08,South,174,0.0,0.0,97,0.00,,,0.00,,2013-01-24 02:52:00,
2013-01-23 22:03:00,12.0,12.0,30.08,South,174,0.0,0.0,98,0.00,,,0.00,,2013-01-24 03:03:00,
2013-01-23 22:12:00,12.0,12.0,30.08,South,174,0.0,0.0,98,0.00,,,0.00,,2013-01-24 03:12:00,
2013-01-23 22:22:00,12.0,12.0,30.07,South,174,0.0,0.0,98,0.00,,,0.00,,2013-01-24 03:22:00,
2013-01-23 22:33:00,12.0,12.0,30.06,South,174,0.0,0.0,99,0.00,,,0.00,,2013-01-24 03:33:00,
2013-01-23 22:43:00,12.0,12.0,30.06,South,174,0.0,0.0,99,0.00,,,0.00,,2013-01-24 03:43:00,
2013-01-23 22:52:00,12.0,12.0,30.06,South,174,0.0,0.0,99,0.00,,,0.00,,2013-01-24 03:52:00,
2013-01-23 23:03:00,12.0,12.0,30.06,South,174,0.0,0.0,99,0.00,,,0.00,,2013-01-24 04:03:00,
2013-01-23 23:12:00,12.0,12.0,30.06,South,174,0.0,0.0,99,0.00,,,0.00,,2013-01-24 04:12:00,
2013-01-23 23:22:00,11.0,11.0,30.06,South,174,0.0,0.0,99,0.00,,,0.00,,2013-01-24 04:22:00,
2013-01-23 23:33:00,11.0,11.0,30.06,South,174,0.0,0.0,99,0.00,,,0.00,,2013-01-24 04:33:00,
2013-01-23 23:42:00,11.0,11.0,30.06,South,174,0.0,0.0,99,0.00,,,0.00,,2013-01-24 04:42:00,
2013-01-23 23:52:00,12.0,12.0,30.06,South,174,0.0,0.0,99,0.00,,,0.00,,2013-01-24 04:52:00,